Showing default

ICEYE-X36, 59103

Orbit data source: Space-Track

ICEYE-X36, 59103 is a payload satellite owned by ICEYE US (US) in SSO that was launched on Mon, 04 Mar 2024 UTC via an FALCON 9 launch vehicle from the Air Force Western Test Range (AFWTR). Payload-class satellites include a variety of spacecraft equipped with specific instruments for various scientific and technological missions. These include communications satellites like Starlink; space stations such as the ISS; scientific satellites like the Hubble; Earth observation satellites from companies like Planet Labs, Umbra, and HawkEye 360; GPS; miniature CubeSats for education and research; and military/defense satellites.

Loading next visibility...
Identifier
59103, 2024-043F
Orbit
SSO
Country
Flag of USUS
Related business
Manufacturer
ICEYE US
Mission
Operational Commercial Radar Imaging
Bus & Motor
ICEYE, Unknown motor
Mass
90 kg wet, 89 kg dry
Launch date (UTC)
2024-03-04 (2 years ago)
Launch vehicle
FALCON 9
Launch site
Air Force Western Test Range (AFWTR)
Object type
Payload
Rocket body
Debris
Shape & HBR
Box + 1 Pan, 1.6 m
Radar Cross Section
0.825 m², Medium (>0.1 m² and < 1m²)

Expand to show TLE details & history
Last TLE update: 14 hours ago

TLE from 14 hours ago
0 ICEYE-X36
1 59103U 24043F   26175.15667573  .00002775  00000-0  19019-3 0  9996
2 59103  97.8368 313.3511 0004582 302.6860  57.3925 15.06905337126191
Epoch: 2026-06-24T03:45Z
TLE epoch observation values (Epoch: 2026-06-24T03:45:36.783Z)
Latitude
0.00005°
Longitude
-15.3701°
Altitude
547.014 km
Speed
7.589 km/s
True Right ascension
20h 53m 24s
True Declination
0° 00' 00"
Sunlit
Object was in full shadow at epoch
Visualization orbit readout
Latitude
Unknown
Longitude
Unknown
Altitude
Unknown
Speed
Unknown
Apparent Right ascension
Unknown
Apparent Declination
Unknown
Sunlit
N/A
Visualization observer readout
Local Sidereal Time
04:43:51
Azimuth
Unknown
Elevation
Unknown
Doppler factor
Unknown
Orbital elements
Apogee altitude
545.836 km
Perigee altitude
539.494 km
Semi-major axis
6,920.802 km
Eccentricity
0.00046
Inclination
97.8368°
RAAN
313.3511°
Arg. of periapsis
302.686°
True anomaly
57.43674°
Mean anomaly
57.3925°
Eccentric anomaly
57.41462°
Mean motion
3.76971 °/min
Orbital period
95.5 mins
BSTAR
0.00019019
Loading maneuver chart data...
Computing Atmospheric mass density...
Loading historical data...
Loading historical data...
Loading historical data...
Loading historical data...
Loading historical data...
Loading historical data...
Loading historical data...

Documentation

Showing up to 5 results
|